[[{"header":{"parameterUnit":"m.s-1","parameterCategory":2,"la1":30.2991,"la2":30.254,"lo1":-89.0895,"lo2":-89.0444,"dy":0.0017,"dx":0.0017,"nx":28,"ny":28,"refTime":"2024-08-14T21:00:00:Z","depth":"0","parameterNumber":2,"parameterNumberName":"U-component_of_CURRENTS"},"data":[0,0,0,0,0,0,0,0,0,0,0,0,0,0,0,0,0,0,0,0,0,0,0,0,0,0,0,0,0,0,0,0,0,0,0,0,0,0,0,0,0,0,0,0,0,0,0,0,0,0,0,0,0,0,0,0,0,0,-0.1533,-0.1534,0,-0.1624,-0.1625,-0.1625,-0.1567,-0.1565,-0.1563,-0.1561,-0.1484,-0.1484,-0.1484,0,0,0,0,0,0,0,0,0,0,0,0,0,-0.1403,-0.1405,-0.1533,-0.1535,-0.1536,-0.1624,-0.1625,-0.1626,-0.1568,-0.1565,-0.1563,-0.156,-0.1484,-0.1484,-0.1484,0,0,0,0,0,0,0,0,0,0,0,0,0,-0.1467,-0.1405,-0.1533,-0.1523,-0.1524,-0.1624,-0.1625,-0.1626,-0.1568,-0.1565,-0.1562,-0.1559,-0.1484,-0.1484,-0.1484,-0.1546,0,0,-0.1483,-0.1483,0,0,0,0,0,0,0,0,-0.1463,-0.1471,-0.1523,-0.1524,-0.1525,-0.1587,-0.1552,-0.1593,-0.1569,-0.1544,-0.1561,-0.1558,-0.151,-0.1507,-0.1524,-0.1542,-0.1539,-0.1483,-0.1483,-0.1483,-0.1483,0,0,0,0,0,0,0,-0.1459,-0.1467,-0.1562,-0.1525,-0.1526,-0.1548,-0.1551,-0.156,-0.1535,-0.1546,-0.1544,-0.1566,-0.1508,-0.1525,-0.1522,-0.1538,-0.1483,-0.1483,-0.1483,-0.1483,-0.1496,-0.1497,0,0,0,0,0,0,-0.146,-0.1463,-0.1559,-0.1566,-0.1493,-0.1552,-0.1557,-0.1565,-0.1539,-0.1535,-0.1569,-0.1563,-0.1527,-0.1522,-0.1519,-0.1513,-0.1483,-0.1483,-0.1483,-0.1496,-0.1496,-0.1497,0,0,0,0,0,0,-0.1457,-0.1467,-0.1556,-0.1522,-0.1536,-0.1558,-0.1568,-0.1569,-0.1578,-0.1559,-0.1549,-0.1577,-0.1524,-0.1519,-0.1518,-0.1512,-0.1483,-0.1483,-0.1495,-0.1496,-0.1497,-0.1551,0,0,0,0,0,0,-0.1452,-0.1465,-0.1463,-0.1522,-0.1538,-0.1588,-0.1572,-0.1573,-0.16,-0.1593,-0.1564,-0.1554,-0.1521,-0.1519,-0.1518,-0.1511,-0.1483,-0.1495,-0.1496,-0.1496,-0.1548,-0.1553,-0.1557,0,0,0,0,0,-0.1447,-0.1452,-0.1462,-0.1474,-0.1536,-0.1589,-0.1597,-0.1599,-0.1604,-0.1598,-0.1592,-0.1554,-0.1521,-0.152,-0.1519,-0.1512,-0.1494,-0.1495,-0.1496,-0.1546,-0.1552,-0.1557,0,0,0,0,0,0,-0.1395,-0.145,-0.146,-0.1481,-0.1523,-0.158,-0.1587,-0.1613,-0.1614,-0.1603,-0.1582,-0.1572,-0.1563,-0.1542,-0.1541,-0.1516,-0.1494,-0.1495,-0.1532,-0.1538,-0.1542,-0.1518,-0.1483,0,0,0,0,0,-0.139,-0.1399,-0.1464,-0.1479,-0.1501,-0.1554,-0.1578,-0.159,-0.1612,-0.1609,-0.1598,-0.1581,-0.1574,-0.1558,-0.1544,-0.1551,-0.152,-0.1538,-0.1542,-0.1546,-0.1526,-0.1537,-0.1541,-0.15,-0.15,-0.15,0,0,-0.138,-0.1409,-0.1417,-0.1468,-0.1501,-0.1539,-0.1556,-0.1594,-0.1616,-0.1603,-0.1611,-0.1604,-0.1582,-0.1574,-0.1566,-0.155,-0.1533,-0.1547,-0.1551,-0.1527,-0.1538,-0.1542,-0.1546,-0.1501,-0.1501,-0.15,0,0,-0.1366,-0.1389,-0.1393,-0.1431,-0.1486,-0.1526,-0.1541,-0.1602,-0.1606,-0.1641,-0.1627,-0.1622,-0.1619,-0.1595,-0.1586,-0.1613,-0.1564,-0.1603,-0.16,-0.1613,-0.1616,-0.1619,-0.155,-0.1546,-0.1597,-0.1597,-0.1597,0,-0.1344,-0.1366,-0.1404,-0.1427,-0.1459,-0.1522,-0.1548,-0.1583,-0.1631,-0.1636,-0.1632,-0.1639,-0.1624,-0.1616,-0.1614,-0.162,-0.1597,-0.1586,-0.1619,-0.1621,-0.1623,-0.1552,-0.1547,-0.16,-0.16,-0.1599,-0.1599,0,-0.1343,-0.1363,-0.1374,-0.1418,-0.1456,-0.149,-0.1555,-0.158,-0.1612,-0.1641,-0.1646,-0.1647,-0.1635,-0.1639,-0.1635,-0.1636,-0.1602,-0.1634,-0.1608,-0.1631,-0.1554,-0.1548,-0.1604,-0.1603,-0.1602,-0.1601,0,0,-0.1293,-0.1353,-0.1359,-0.1371,-0.1454,-0.1483,-0.153,-0.1577,-0.1589,-0.1629,-0.1629,-0.1644,-0.1643,-0.1632,-0.1631,-0.164,-0.163,-0.164,-0.1639,-0.1571,-0.1601,-0.1438,-0.1415,-0.1685,-0.1686,-0.1686,-0.1529,0,-0.1276,-0.1295,-0.1344,-0.1378,-0.14,-0.1468,-0.1502,-0.1551,-0.1587,-0.1597,-0.1616,-0.1609,-0.1643,-0.1625,-0.1652,-0.1645,-0.1622,-0.1665,-0.1586,-0.1581,-0.1437,-0.1406,-0.1306,-0.1147,-0.1523,-0.1521,-0.1521,0,-0.1262,-0.1278,-0.1293,-0.1345,-0.136,-0.1389,-0.1438,-0.1477,-0.1521,-0.154,-0.1559,-0.1569,-0.1574,-0.1602,-0.1603,-0.1634,-0.1605,-0.1599,-0.1594,-0.1415,-0.1408,-0.1191,-0.1122,-0.12,-0.1511,-0.1512,-0.1512,0,-0.1199,-0.1246,-0.1245,-0.1268,-0.1338,-0.1347,-0.1385,-0.1445,-0.1459,-0.1486,-0.1472,-0.1517,-0.1499,-0.1528,-0.1508,-0.1564,-0.1479,-0.1557,-0.1365,-0.1351,-0.1228,-0.1203,-0.1223,-0.1524,-0.1525,-0.1525,-0.1526,0,-0.1165,-0.1172,-0.1207,-0.1212,-0.1211,-0.1284,-0.1286,-0.1332,-0.1368,-0.1352,-0.1421,-0.1395,-0.1488,-0.1454,-0.1468,-0.1362,-0.1444,-0.1323,-0.1301,-0.1237,-0.1215,-0.1247,-0.1313,-0.1519,-0.1521,-0.1522,-0.1523,0,-0.1105,-0.1132,-0.1133,-0.1174,-0.118,-0.1178,-0.1219,-0.1214,-0.1264,-0.1236,-0.123,-0.1291,-0.1253,-0.1272,-0.1274,-0.1257,-0.1177,-0.1131,-0.0995,-0.0959,-0.0874,-0.0944,-0.0867,-0.0837,-0.0912,-0.0907,-0.0903,0,-0.1075,-0.1063,-0.1077,-0.1067,-0.1081,-0.1086,-0.1081,-0.1147,-0.114,-0.1155,-0.1119,-0.1086,-0.1052,-0.0966,-0.0907,-0.0825,-0.0954,-0.068,-0.0775,-0.0808,-0.0875,-0.0961,-0.0951,-0.0624,-0.0618,-0.0613,-0.0609,0,-0.1011,-0.1008,-0.1007,-0.0975,-0.0959,-0.0943,-0.0941,-0.0924,-0.0972,-0.0944,-0.0905,-0.0882,-0.0778,-0.0654,-0.0524,-0.051,-0.0691,-0.057,-0.0683,-0.0682,-0.0703,-0.0682,-0.0748,-0.0565,-0.0569,-0.0572,-0.0575,-0.0576,-0.0948,-0.0924,-0.0903,-0.0872,-0.0856,-0.0801,-0.075,-0.0743,-0.0701,-0.064,-0.0686,-0.0587,-0.047,-0.0288,-0.0299,-0.0225,-0.0323,-0.0259,-0.0341,-0.0426,-0.04,-0.03,-0.0057,-0.0059,-0.006,-0.0061,-0.0062,0,-0.0853,-0.0831,-0.08,-0.075,-0.0697,-0.0718,-0.0651,-0.058,-0.0488,-0.0427,-0.0377,-0.0191,-0.007,-0.0054,0.0064,-0.0006,-0.0109,-0.0088,-0.0262,-0.0264,-0.0232,-0.0225,0.0086,0.0086,0.0086,0.0086,0.0086,0.0086,-0.0797,-0.0734,-0.0718,-0.0603,-0.0576,-0.0462,-0.0409,-0.0316,-0.024,-0.0066,0.0053,0.0094,0.0141,0.0046,-0.0045,-0.0076,-0.0227,-0.0165,-0.027,-0.0352,-0.038,-0.0406,-0.0419,-0.0153,-0.0154,-0.0272,-0.0273,-0.0274]},{"header":{"parameterUnit":"m.s-1","parameterCategory":2,"la1":30.2991,"la2":30.254,"lo1":-89.0895,"lo2":-89.0444,"dy":0.0017,"dx":0.0017,"nx":28,"ny":28,"refTime":"2024-08-14T21:00:00:Z","depth":"0","parameterNumber":3,"parameterNumberName":"V-component_of_CURRENTS"},"data":[0,0,0,0,0,0,0,0,0,0,0,0,0,0,0,0,0,0,0,0,0,0,0,0,0,0,0,0,0,0,0,0,0,0,0,0,0,0,0,0,0,0,0,0,0,0,0,0,0,0,0,0,0,0,0,0,0,0,-0.0543,-0.0543,0,-0.0535,-0.0535,-0.0535,-0.0463,-0.0461,-0.0459,-0.0458,-0.044,-0.0441,-0.0442,0,0,0,0,0,0,0,0,0,0,0,0,0,-0.042,-0.0423,-0.0543,-0.0543,-0.0543,-0.0535,-0.0535,-0.0535,-0.0463,-0.0461,-0.0459,-0.0457,-0.0439,-0.0441,-0.0442,0,0,0,0,0,0,0,0,0,0,0,0,0,-0.0449,-0.0424,-0.0543,-0.0506,-0.0502,-0.0535,-0.0535,-0.0535,-0.0464,-0.0461,-0.0458,-0.0456,-0.0439,-0.044,-0.0442,-0.0509,0,0,-0.0448,-0.0449,0,0,0,0,0,0,0,0,-0.0448,-0.0454,-0.0512,-0.0508,-0.0505,-0.0496,-0.0484,-0.0525,-0.0465,-0.0479,-0.0458,-0.0454,-0.0459,-0.0459,-0.0465,-0.0508,-0.0507,-0.0448,-0.0449,-0.045,-0.045,0,0,0,0,0,0,0,-0.0446,-0.0454,-0.0541,-0.0512,-0.0507,-0.0462,-0.0464,-0.0491,-0.0485,-0.0478,-0.0473,-0.0471,-0.0457,-0.0463,-0.0464,-0.0507,-0.0448,-0.045,-0.0451,-0.0451,-0.052,-0.052,0,0,0,0,0,0,-0.0454,-0.0453,-0.0541,-0.054,-0.0468,-0.0467,-0.0469,-0.0503,-0.0485,-0.048,-0.0474,-0.0468,-0.0462,-0.0462,-0.0463,-0.0499,-0.045,-0.0452,-0.0453,-0.0519,-0.052,-0.0521,0,0,0,0,0,0,-0.0452,-0.0463,-0.0541,-0.0493,-0.0499,-0.0473,-0.051,-0.0504,-0.0496,-0.0482,-0.0475,-0.047,-0.0459,-0.046,-0.049,-0.0499,-0.0452,-0.0454,-0.0518,-0.0519,-0.052,-0.0598,0,0,0,0,0,0,-0.0449,-0.0464,-0.0488,-0.0495,-0.0502,-0.0557,-0.0512,-0.0506,-0.05,-0.0492,-0.0478,-0.0473,-0.0457,-0.0488,-0.0492,-0.0501,-0.0456,-0.0517,-0.0519,-0.052,-0.0595,-0.0602,-0.0608,0,0,0,0,0,-0.0445,-0.0497,-0.049,-0.05,-0.0539,-0.0558,-0.0559,-0.0528,-0.0502,-0.0509,-0.0505,-0.0473,-0.0497,-0.0492,-0.0496,-0.0505,-0.0517,-0.0518,-0.052,-0.0592,-0.06,-0.0608,0,0,0,0,0,0,-0.046,-0.0495,-0.0487,-0.0548,-0.0548,-0.0545,-0.0554,-0.0536,-0.054,-0.0535,-0.0509,-0.0507,-0.0528,-0.0514,-0.0508,-0.0524,-0.0492,-0.0494,-0.0545,-0.0553,-0.0559,-0.0553,-0.0457,0,0,0,0,0,-0.0477,-0.0523,-0.0533,-0.0579,-0.0582,-0.0568,-0.0571,-0.0558,-0.0562,-0.0558,-0.0549,-0.054,-0.0544,-0.0546,-0.055,-0.0583,-0.0497,-0.0581,-0.0588,-0.0594,-0.059,-0.0478,-0.0473,-0.0526,-0.0526,-0.0526,0,0,-0.0491,-0.0519,-0.0542,-0.0583,-0.0581,-0.0609,-0.0563,-0.0581,-0.0607,-0.0562,-0.0596,-0.0574,-0.056,-0.0584,-0.059,-0.0571,-0.0528,-0.0596,-0.0601,-0.0594,-0.0479,-0.0473,-0.0468,-0.0527,-0.0527,-0.0527,0,0,-0.0539,-0.0571,-0.0613,-0.0624,-0.0635,-0.0641,-0.0647,-0.065,-0.065,-0.0689,-0.065,-0.0632,-0.0658,-0.0632,-0.0627,-0.0676,-0.057,-0.067,-0.0701,-0.0593,-0.0587,-0.0581,-0.0439,-0.0419,-0.067,-0.067,-0.067,0,-0.055,-0.0615,-0.0623,-0.0659,-0.0673,-0.0659,-0.0694,-0.0713,-0.0725,-0.0731,-0.0707,-0.0691,-0.0677,-0.0679,-0.0688,-0.0689,-0.0595,-0.0677,-0.0599,-0.0591,-0.0583,-0.044,-0.0417,-0.0674,-0.0674,-0.0673,-0.0673,0,-0.0618,-0.0663,-0.0689,-0.0739,-0.0757,-0.0791,-0.081,-0.0833,-0.0831,-0.0829,-0.0826,-0.0791,-0.0763,-0.0755,-0.0745,-0.0691,-0.0629,-0.0621,-0.0577,-0.0582,-0.0431,-0.0406,-0.068,-0.0678,-0.0677,-0.0676,0,0,-0.0656,-0.0725,-0.0731,-0.0753,-0.0802,-0.0822,-0.0887,-0.0924,-0.0944,-0.0934,-0.0934,-0.0917,-0.0857,-0.0844,-0.0798,-0.0711,-0.0572,-0.0648,-0.0641,-0.0502,-0.029,-0.0296,-0.0267,-0.0544,-0.0541,-0.0538,-0.0196,0,-0.0699,-0.0779,-0.0806,-0.0872,-0.0909,-0.0926,-0.0975,-0.1005,-0.1021,-0.1025,-0.0968,-0.0951,-0.0906,-0.0871,-0.0782,-0.066,-0.0513,-0.0662,-0.031,-0.0299,-0.0299,-0.0243,-0.0218,0.0083,-0.0171,-0.0167,-0.0164,0,-0.0745,-0.0798,-0.0872,-0.0929,-0.0942,-0.0982,-0.1039,-0.1078,-0.1096,-0.1097,-0.1061,-0.1014,-0.0929,-0.086,-0.0601,-0.0698,-0.048,-0.0349,-0.0332,-0.0295,-0.0259,0.0043,0.0139,0.0258,-0.0125,-0.0128,-0.0131,0,-0.0751,-0.0835,-0.0896,-0.0918,-0.0989,-0.102,-0.1052,-0.1092,-0.1113,-0.1125,-0.1113,-0.1026,-0.0962,-0.0732,-0.0511,-0.0527,-0.0188,-0.0172,0.0062,0.0067,0.0177,0.0183,0.0431,0.0114,0.0113,0.0112,0.0111,0,-0.0786,-0.0825,-0.0901,-0.0933,-0.0991,-0.1025,-0.1073,-0.1109,-0.1124,-0.1129,-0.1122,-0.1095,-0.0922,-0.0743,-0.0498,-0.0173,-0.0159,0.0086,0.0153,0.015,0.0149,0.0326,0.0326,0.0125,0.0122,0.0119,0.0117,0,-0.0766,-0.0825,-0.0889,-0.0971,-0.0996,-0.1027,-0.1079,-0.1104,-0.1128,-0.1128,-0.1122,-0.1115,-0.0936,-0.0714,-0.0362,-0.0158,0.0243,0.0308,0.0289,0.0345,0.0614,0.0605,0.0897,0.0992,0.062,0.0622,0.0624,0,-0.0759,-0.0798,-0.0898,-0.0937,-0.0973,-0.1025,-0.1058,-0.1102,-0.1119,-0.1129,-0.1117,-0.1013,-0.0956,-0.0519,-0.0175,0.0257,0.0375,0.0596,0.0558,0.0652,0.0696,0.0673,0.0729,0.0718,0.072,0.0722,0.0723,0,-0.0738,-0.0777,-0.083,-0.0917,-0.0969,-0.1015,-0.1057,-0.1071,-0.11,-0.1099,-0.1092,-0.1063,-0.0763,-0.0435,0.0046,0.0338,0.0613,0.0646,0.0771,0.081,0.078,0.0893,0.0483,0.0739,0.0738,0.0737,0.0736,0.0735,-0.0702,-0.0734,-0.0813,-0.0888,-0.0942,-0.0982,-0.0996,-0.1021,-0.1028,-0.0993,-0.1033,-0.0951,-0.0569,0.0015,0.0288,0.0838,0.0785,0.1046,0.1049,0.1034,0.1043,0.0653,0.093,0.0929,0.0929,0.0929,0.0928,0,-0.0661,-0.0711,-0.0779,-0.0862,-0.0898,-0.0943,-0.0975,-0.0959,-0.0936,-0.0905,-0.0882,-0.0568,-0.0112,0.0315,0.1024,0.126,0.1308,0.1366,0.1372,0.143,0.1155,0.1071,0.1353,0.1353,0.1353,0.1352,0.1352,0.1352,-0.0644,-0.0696,-0.0746,-0.08,-0.0846,-0.0852,-0.0857,-0.0833,-0.0794,-0.0644,-0.0507,-0.0433,0.0141,0.092,0.1526,0.1601,0.1732,0.1672,0.1764,0.1572,0.1543,0.1515,0.1441,0.1796,0.1796,0.2061,0.2063,0.2065]}],[{"header":{"parameterUnit":"m.s-1","parameterCategory":2,"la1":30.2991,"la2":30.254,"lo1":-89.0895,"lo2":-89.0444,"dy":0.0017,"dx":0.0017,"nx":28,"ny":28,"refTime":"2024-08-14T21:00:00:Z","depth":"2","parameterNumber":2,"parameterNumberName":"U-component_of_CURRENTS"},"data":[0,0,0,0,0,0,0,0,0,0,0,0,0,0,0,0,0,0,0,0,0,0,0,0,0,0,0,0,0,0,0,0,0,0,0,0,0,0,0,0,0,0,0,0,0,0,0,0,0,0,0,0,0,0,0,0,0,0,-0.261,-0.2611,0,-0.271,-0.2711,-0.2712,-0.2787,-0.2788,-0.2789,-0.279,-0.2865,-0.2866,-0.2867,0,0,0,0,0,0,0,0,0,0,0,0,0,-0.248,-0.2481,-0.2609,-0.2611,-0.2613,-0.271,-0.2711,-0.2712,-0.2787,-0.2788,-0.2789,-0.279,-0.2864,-0.2866,-0.2867,0,0,0,0,0,0,0,0,0,0,0,0,0,-0.2551,-0.2482,-0.2609,-0.2664,-0.267,-0.271,-0.2711,-0.2712,-0.2786,-0.2788,-0.2789,-0.2791,-0.2864,-0.2866,-0.2867,-0.2849,0,0,-0.2872,-0.2873,0,0,0,0,0,0,0,0,-0.2546,-0.2555,-0.2654,-0.266,-0.2667,-0.274,-0.2693,-0.2758,-0.2786,-0.2739,-0.279,-0.2791,-0.2822,-0.2827,-0.2838,-0.2852,-0.2855,-0.2872,-0.2873,-0.2874,-0.2875,0,0,0,0,0,0,0,-0.2541,-0.2551,-0.2646,-0.2656,-0.2664,-0.2683,-0.2694,-0.2706,-0.2768,-0.2743,-0.2749,-0.2765,-0.2825,-0.2837,-0.2841,-0.2857,-0.2872,-0.2874,-0.2875,-0.2876,-0.2922,-0.2922,0,0,0,0,0,0,-0.2534,-0.2546,-0.2643,-0.2649,-0.2613,-0.2684,-0.2697,-0.2713,-0.2769,-0.278,-0.2764,-0.2768,-0.2833,-0.2839,-0.2844,-0.2894,-0.2874,-0.2876,-0.2877,-0.2922,-0.2922,-0.2922,0,0,0,0,0,0,-0.2531,-0.2542,-0.2639,-0.2603,-0.2617,-0.2685,-0.2702,-0.2714,-0.2787,-0.2785,-0.2796,-0.2833,-0.2834,-0.2841,-0.287,-0.2895,-0.2876,-0.2878,-0.2922,-0.2922,-0.2922,-0.295,0,0,0,0,0,0,-0.2527,-0.254,-0.2563,-0.2602,-0.2619,-0.2679,-0.2702,-0.2715,-0.2792,-0.2801,-0.2846,-0.2851,-0.2836,-0.2868,-0.2872,-0.2897,-0.2879,-0.2921,-0.2922,-0.2922,-0.2948,-0.2951,-0.2953,0,0,0,0,0,-0.2522,-0.2546,-0.2563,-0.2576,-0.2644,-0.268,-0.269,-0.2741,-0.2795,-0.2816,-0.2841,-0.2853,-0.2874,-0.2869,-0.2874,-0.29,-0.2921,-0.2922,-0.2922,-0.2947,-0.295,-0.2953,0,0,0,0,0,0,-0.2522,-0.2557,-0.2577,-0.2618,-0.2653,-0.2694,-0.2734,-0.2778,-0.282,-0.2831,-0.2855,-0.286,-0.2885,-0.2892,-0.2887,-0.2912,-0.29,-0.2902,-0.2918,-0.2921,-0.2923,-0.2868,-0.2881,0,0,0,0,0,-0.2526,-0.2536,-0.2585,-0.2614,-0.2648,-0.2706,-0.274,-0.2759,-0.2796,-0.2822,-0.2853,-0.2874,-0.2881,-0.2904,-0.2894,-0.2924,-0.2873,-0.2943,-0.2946,-0.2948,-0.2905,-0.2849,-0.2841,-0.2924,-0.2924,-0.2924,0,0,-0.254,-0.2553,-0.2569,-0.2612,-0.2657,-0.2704,-0.2732,-0.2776,-0.2797,-0.2818,-0.2871,-0.2878,-0.2886,-0.2894,-0.291,-0.2916,-0.2901,-0.2948,-0.295,-0.2905,-0.2849,-0.284,-0.2833,-0.2924,-0.2924,-0.2924,0,0,-0.2536,-0.2589,-0.2592,-0.2621,-0.2665,-0.2714,-0.2746,-0.2801,-0.2816,-0.2858,-0.286,-0.2879,-0.2933,-0.2908,-0.2916,-0.2932,-0.2902,-0.2956,-0.2942,-0.2891,-0.2882,-0.2874,-0.281,-0.2796,-0.2974,-0.2974,-0.2974,0,-0.2543,-0.2557,-0.2603,-0.2612,-0.2644,-0.2738,-0.2763,-0.2798,-0.2841,-0.2827,-0.2878,-0.2902,-0.293,-0.2908,-0.2912,-0.2936,-0.289,-0.2938,-0.2891,-0.2882,-0.2873,-0.2809,-0.2793,-0.2975,-0.2975,-0.2975,-0.2975,0,-0.2529,-0.2558,-0.2576,-0.2624,-0.267,-0.27,-0.276,-0.2795,-0.2864,-0.2874,-0.2868,-0.2884,-0.2891,-0.2923,-0.2935,-0.2887,-0.2868,-0.2888,-0.288,-0.2866,-0.28,-0.2783,-0.2977,-0.2977,-0.2977,-0.2976,0,0,-0.2522,-0.2548,-0.2573,-0.2575,-0.2665,-0.27,-0.2748,-0.2785,-0.2794,-0.2842,-0.2828,-0.2859,-0.2856,-0.2857,-0.2866,-0.284,-0.2773,-0.2844,-0.2841,-0.2771,-0.2635,-0.2524,-0.2495,-0.2785,-0.2782,-0.278,-0.2617,0,-0.2505,-0.2506,-0.2534,-0.2588,-0.2617,-0.2681,-0.2709,-0.2739,-0.2786,-0.2793,-0.2795,-0.2801,-0.2837,-0.2843,-0.2814,-0.2798,-0.2725,-0.2812,-0.2663,-0.2657,-0.2554,-0.2471,-0.232,-0.2153,-0.26,-0.2597,-0.2595,0,-0.2504,-0.2499,-0.2521,-0.253,-0.2552,-0.2609,-0.2666,-0.2687,-0.2704,-0.2705,-0.2707,-0.2716,-0.2702,-0.2733,-0.265,-0.2707,-0.2638,-0.2615,-0.2609,-0.2469,-0.2513,-0.2237,-0.2104,-0.2566,-0.2568,-0.2571,-0.2573,0,-0.2496,-0.2506,-0.2518,-0.253,-0.2568,-0.2584,-0.2643,-0.2675,-0.2663,-0.2668,-0.2663,-0.2633,-0.2637,-0.2576,-0.2546,-0.2597,-0.2421,-0.2498,-0.23,-0.2293,-0.2109,-0.209,-0.2338,-0.2338,-0.2338,-0.2339,-0.2339,0,-0.2474,-0.2511,-0.2519,-0.2535,-0.2543,-0.2579,-0.2601,-0.2621,-0.2625,-0.2582,-0.2626,-0.2555,-0.2593,-0.2518,-0.2484,-0.2328,-0.2366,-0.2235,-0.2221,-0.2118,-0.2102,-0.2423,-0.2435,-0.2333,-0.2334,-0.2335,-0.2336,0,-0.2517,-0.2511,-0.2528,-0.2541,-0.2546,-0.2587,-0.262,-0.2597,-0.262,-0.257,-0.2569,-0.2513,-0.2401,-0.238,-0.2267,-0.2232,-0.2117,-0.2017,-0.1887,-0.1858,-0.2041,-0.2057,-0.1814,-0.1808,-0.1803,-0.1799,-0.1795,0,-0.253,-0.253,-0.2556,-0.2545,-0.2573,-0.2613,-0.2596,-0.2614,-0.2573,-0.25,-0.2435,-0.2333,-0.217,-0.199,-0.1907,-0.1775,-0.1877,-0.1559,-0.1618,-0.1964,-0.1976,-0.2,-0.2022,-0.1399,-0.1393,-0.1388,-0.1384,0,-0.2533,-0.2567,-0.2585,-0.2547,-0.2542,-0.2527,-0.2517,-0.2479,-0.2439,-0.2359,-0.2168,-0.2041,-0.1841,-0.1627,-0.1489,-0.1398,-0.1602,-0.1446,-0.1794,-0.1566,-0.1562,-0.158,-0.1616,-0.1337,-0.1342,-0.1345,-0.1348,-0.1349,-0.2548,-0.2562,-0.2536,-0.2513,-0.2477,-0.2395,-0.2347,-0.2273,-0.2155,-0.195,-0.188,-0.1617,-0.1584,-0.1269,-0.1139,-0.1059,-0.1204,-0.1181,-0.1201,-0.1226,-0.1217,-0.1206,-0.0911,-0.0913,-0.0915,-0.0917,-0.0918,0,-0.2475,-0.2476,-0.2455,-0.2388,-0.2298,-0.2313,-0.2208,-0.2087,-0.1874,-0.1681,-0.1455,-0.1181,-0.099,-0.0949,-0.0762,-0.0722,-0.075,-0.067,-0.0749,-0.0793,-0.0834,-0.0811,-0.0393,-0.0392,-0.0391,-0.0389,0,0,-0.2436,-0.2379,-0.2362,-0.218,-0.2133,-0.1966,-0.1885,-0.1689,-0.1517,-0.1183,-0.0993,-0.0928,-0.0936,-0.0716,-0.0637,-0.0489,-0.0631,-0.0421,-0.0841,-0.0979,-0.1018,-0.1118,-0.1129,0,0,0,0,0]},{"header":{"parameterUnit":"m.s-1","parameterCategory":2,"la1":30.2991,"la2":30.254,"lo1":-89.0895,"lo2":-89.0444,"dy":0.0017,"dx":0.0017,"nx":28,"ny":28,"refTime":"2024-08-14T21:00:00:Z","depth":"2","parameterNumber":3,"parameterNumberName":"V-component_of_CURRENTS"},"data":[0,0,0,0,0,0,0,0,0,0,0,0,0,0,0,0,0,0,0,0,0,0,0,0,0,0,0,0,0,0,0,0,0,0,0,0,0,0,0,0,0,0,0,0,0,0,0,0,0,0,0,0,0,0,0,0,0,0,-0.0074,-0.0073,0,0.006,0.0061,0.0063,0.0192,0.0193,0.0195,0.0196,0.0465,0.047,0.0476,0,0,0,0,0,0,0,0,0,0,0,0,0,-0.0215,-0.0213,-0.0074,-0.0073,-0.0071,0.0059,0.0061,0.0063,0.0191,0.0193,0.0195,0.0197,0.0463,0.047,0.0476,0,0,0,0,0,0,0,0,0,0,0,0,0,-0.0124,-0.0213,-0.0075,0.0008,0.0016,0.0059,0.0061,0.0064,0.0191,0.0193,0.0195,0.0198,0.0461,0.0469,0.0477,0.0484,0,0,0.0504,0.0507,0,0,0,0,0,0,0,0,-0.0129,-0.0119,-0.0006,0.0002,0.0012,0.011,0.011,0.0211,0.019,0.0126,0.0196,0.0199,0.0356,0.0373,0.0393,0.0496,0.0508,0.0504,0.0509,0.0513,0.0516,0,0,0,0,0,0,0,-0.0136,-0.0124,-0.002,-0.0005,0.0006,0.0039,0.0055,0.0129,0.023,0.0131,0.0141,0.0153,0.0363,0.0384,0.0401,0.0512,0.0504,0.0512,0.0517,0.052,0.081,0.0813,0,0,0,0,0,0,-0.0157,-0.013,-0.0024,-0.0016,-0.0056,0.004,0.0057,0.0077,0.0226,0.025,0.0151,0.0159,0.0369,0.0391,0.0411,0.0554,0.0513,0.0521,0.0526,0.0808,0.0811,0.0814,0,0,0,0,0,0,-0.0161,-0.0149,-0.003,-0.0071,-0.0054,0.004,0.0061,0.0079,0.0152,0.0239,0.0267,0.0213,0.0371,0.0399,0.0483,0.0561,0.0525,0.0533,0.0805,0.0809,0.0812,0.0759,0,0,0,0,0,0,-0.0165,-0.0151,-0.0139,-0.0073,-0.0052,0.0013,0.0059,0.0079,0.0153,0.0166,0.03,0.0324,0.0375,0.0469,0.0491,0.0572,0.0539,0.0801,0.0806,0.0811,0.0757,0.076,0.0763,0,0,0,0,0,-0.0171,-0.0169,-0.0139,-0.0126,-0.004,0.0013,0.0028,0.0102,0.0154,0.018,0.0254,0.0323,0.0519,0.0475,0.0501,0.0587,0.0799,0.0805,0.0811,0.0756,0.076,0.0763,0,0,0,0,0,0,-0.0213,-0.0154,-0.0119,-0.0095,-0.0036,0.0036,0.006,0.0123,0.0202,0.0216,0.0319,0.0347,0.045,0.0524,0.0475,0.0689,0.0687,0.0698,0.0637,0.0641,0.0644,0.0599,0.0547,0,0,0,0,0,-0.0223,-0.0207,-0.0137,-0.0114,-0.0088,-0.0003,0.0034,0.008,0.0152,0.0193,0.0286,0.0394,0.0486,0.0563,0.0631,0.0741,0.074,0.0828,0.0831,0.0832,0.0817,0.0822,0.0821,0.0833,0.0832,0.0832,0,0,-0.0227,-0.0199,-0.0183,-0.0123,-0.0072,-0.0034,0.0027,0.0075,0.0117,0.0207,0.0299,0.0384,0.0507,0.0609,0.0672,0.0692,0.0836,0.0839,0.0839,0.0823,0.0828,0.0826,0.0824,0.0836,0.0836,0.0835,0,0,-0.0254,-0.0206,-0.0207,-0.0167,-0.0109,-0.0051,-0.0025,0.0061,0.0114,0.02,0.0275,0.0399,0.0552,0.065,0.0725,0.0796,0.082,0.0852,0.0865,0.087,0.0867,0.0865,0.0868,0.0866,0.0888,0.0888,0.0888,0,-0.0268,-0.0255,-0.0195,-0.019,-0.0162,-0.005,-0.0037,0.0031,0.0136,0.0163,0.0228,0.044,0.0578,0.0696,0.0752,0.0806,0.0784,0.0833,0.0866,0.0863,0.0861,0.0865,0.0864,0.0886,0.0886,0.0886,0.0887,0,-0.0296,-0.0282,-0.0278,-0.0228,-0.0183,-0.016,-0.0068,-0.0013,0.0087,0.0156,0.0273,0.043,0.0559,0.0666,0.0753,0.0838,0.0817,0.083,0.0835,0.0855,0.0861,0.086,0.0883,0.0884,0.0885,0.0885,0,0,-0.0335,-0.031,-0.0302,-0.0298,-0.0213,-0.0178,-0.012,-0.0044,-0.001,0.0133,0.0189,0.0427,0.0499,0.0589,0.0716,0.0795,0.0828,0.0823,0.0824,0.0787,0.0805,0.0846,0.0849,0.0809,0.0809,0.0809,0.0814,0,-0.0373,-0.0392,-0.0358,-0.0336,-0.0326,-0.0244,-0.0201,-0.0122,-0.0023,0.0055,0.0229,0.0336,0.0471,0.0552,0.064,0.0794,0.082,0.0824,0.0826,0.0827,0.0827,0.0849,0.0785,0.0787,0.0813,0.0813,0.0813,0,-0.0405,-0.0416,-0.043,-0.0412,-0.04,-0.0358,-0.0289,-0.0229,-0.0114,-0.0064,0.005,0.0163,0.0358,0.044,0.0635,0.0613,0.0686,0.0787,0.0788,0.0837,0.0866,0.0777,0.0784,0.0811,0.0811,0.0811,0.0812,0,-0.0458,-0.0457,-0.0475,-0.0465,-0.0423,-0.0409,-0.0341,-0.025,-0.0215,-0.0118,-0.0087,0.0069,0.0223,0.0309,0.0585,0.0575,0.0759,0.0761,0.0829,0.0832,0.079,0.079,0.0784,0.0784,0.0784,0.0784,0.0784,0,-0.0515,-0.0519,-0.0496,-0.0505,-0.0507,-0.044,-0.041,-0.0366,-0.0287,-0.0236,-0.0127,-0.0055,0.0196,0.0356,0.0505,0.0707,0.068,0.0819,0.0836,0.0777,0.0776,0.0809,0.0812,0.0784,0.0784,0.0784,0.0784,0,-0.0556,-0.0556,-0.0567,-0.0544,-0.0534,-0.0501,-0.0431,-0.0408,-0.0353,-0.0284,-0.0257,-0.0099,0.0113,0.0328,0.0555,0.0656,0.0807,0.0845,0.0778,0.0787,0.0872,0.0872,0.0883,0.0885,0.0886,0.0887,0.0888,0,-0.0586,-0.0601,-0.0586,-0.0585,-0.0565,-0.0516,-0.0492,-0.0434,-0.0402,-0.0298,-0.0266,-0.007,0.0081,0.0418,0.0627,0.0816,0.0844,0.0838,0.0824,0.0867,0.0881,0.088,0.0879,0.0744,0.0744,0.0743,0.0743,0,-0.0637,-0.0618,-0.0625,-0.0621,-0.0598,-0.0582,-0.0523,-0.0537,-0.045,-0.0415,-0.0311,-0.0188,0.0147,0.0401,0.0674,0.076,0.0813,0.0837,0.0886,0.0747,0.0741,0.0754,0.0756,0.074,0.0741,0.0741,0.0741,0.0741,-0.0656,-0.0657,-0.066,-0.0649,-0.0636,-0.0636,-0.0625,-0.0584,-0.0557,-0.046,-0.0331,-0.0097,0.0152,0.0565,0.0681,0.0793,0.0819,0.0828,0.0826,0.0825,0.0826,0.0825,0.0839,0.0839,0.084,0.0841,0.0841,0,-0.0693,-0.0686,-0.0689,-0.0692,-0.0702,-0.066,-0.0649,-0.064,-0.0613,-0.0425,-0.0291,-0.002,0.026,0.0513,0.0683,0.0771,0.0721,0.0764,0.069,0.0694,0.0696,0.0688,0.0666,0.0665,0.0665,0.0665,0,0,-0.0715,-0.0734,-0.0731,-0.0765,-0.0748,-0.0739,-0.0733,-0.0707,-0.0583,-0.0433,-0.02,0.0092,0.0382,0.0471,0.0562,0.063,0.062,0.0602,0.0734,0.0636,0.0637,0.0728,0.0719,0,0,0,0,0]}],[{"header":{"parameterUnit":"m.s-1","parameterCategory":2,"la1":30.2991,"la2":30.254,"lo1":-89.0895,"lo2":-89.0444,"dy":0.0017,"dx":0.0017,"nx":28,"ny":28,"refTime":"2024-08-14T21:00:00:Z","depth":"4","parameterNumber":2,"parameterNumberName":"U-component_of_CURRENTS"},"data":[0,0,0,0,0,0,0,0,0,0,0,0,0,0,0,0,0,0,0,0,0,0,0,0,0,0,0,0,0,0,0,0,0,0,0,0,0,0,0,0,0,0,0,0,0,0,0,0,0,0,0,0,0,0,0,0,0,0,-0.1266,-0.1266,0,-0.1295,-0.1296,-0.1296,-0.1339,-0.134,-0.134,-0.1341,-0.145,-0.1452,-0.1454,0,0,0,0,0,0,0,0,0,0,0,0,0,-0.1217,-0.1219,-0.1266,-0.1266,-0.1266,-0.1295,-0.1296,-0.1296,-0.1339,-0.134,-0.134,-0.1341,-0.1449,-0.1452,-0.1455,0,0,0,0,0,0,0,0,0,0,0,0,0,-0.1245,-0.1219,-0.1266,-0.1289,-0.1291,-0.1295,-0.1296,-0.1296,-0.1339,-0.134,-0.1341,-0.1341,-0.1448,-0.1451,-0.1455,-0.1463,0,0,-0.1466,-0.1468,0,0,0,0,0,0,0,0,-0.1243,-0.1247,-0.1286,-0.1287,-0.129,-0.1312,-0.1318,-0.1355,-0.1339,-0.1324,-0.1341,-0.1342,-0.1408,-0.1415,-0.1422,-0.1468,-0.1473,-0.1467,-0.1469,-0.147,-0.1471,0,0,0,0,0,0,0,-0.1241,-0.1246,-0.1281,-0.1286,-0.1288,-0.1287,-0.1292,-0.1325,-0.1366,-0.1326,-0.1328,-0.1326,-0.1411,-0.1419,-0.1425,-0.1475,-0.1466,-0.147,-0.1472,-0.1473,-0.1607,-0.1608,0,0,0,0,0,0,-0.1232,-0.1244,-0.128,-0.1281,-0.1264,-0.1287,-0.1293,-0.1306,-0.1364,-0.1372,-0.1325,-0.1328,-0.1412,-0.1421,-0.143,-0.1499,-0.147,-0.1474,-0.1476,-0.1606,-0.1607,-0.1609,0,0,0,0,0,0,-0.1232,-0.1236,-0.1279,-0.126,-0.1265,-0.1287,-0.1302,-0.1307,-0.1332,-0.1362,-0.1372,-0.1347,-0.1413,-0.1424,-0.1487,-0.1502,-0.1475,-0.1479,-0.1604,-0.1606,-0.1608,-0.1603,0,0,0,0,0,0,-0.123,-0.1236,-0.1254,-0.126,-0.1265,-0.1296,-0.1301,-0.1306,-0.1327,-0.1331,-0.1384,-0.1393,-0.1414,-0.1481,-0.149,-0.1506,-0.1482,-0.1602,-0.1605,-0.1607,-0.1601,-0.1604,-0.1607,0,0,0,0,0,-0.1229,-0.124,-0.1255,-0.1259,-0.1286,-0.1296,-0.13,-0.1319,-0.1327,-0.1344,-0.1387,-0.1393,-0.1503,-0.1486,-0.1496,-0.1513,-0.1601,-0.1604,-0.1607,-0.16,-0.1604,-0.1607,0,0,0,0,0,0,-0.1226,-0.1246,-0.1262,-0.128,-0.1296,-0.1302,-0.1319,-0.1326,-0.137,-0.1386,-0.1413,-0.1427,-0.1483,-0.1505,-0.1484,-0.1561,-0.1552,-0.1557,-0.1543,-0.1547,-0.1549,-0.1544,-0.1485,0,0,0,0,0,-0.1233,-0.1255,-0.1268,-0.1287,-0.1297,-0.1312,-0.1321,-0.1335,-0.1364,-0.1384,-0.1421,-0.1465,-0.15,-0.1529,-0.1566,-0.1612,-0.1612,-0.163,-0.1633,-0.1635,-0.164,-0.1653,-0.1656,-0.1619,-0.1619,-0.1619,0,0,-0.1239,-0.125,-0.1266,-0.1288,-0.1306,-0.1318,-0.1322,-0.1344,-0.1357,-0.139,-0.1441,-0.1478,-0.1515,-0.1565,-0.1592,-0.1589,-0.1645,-0.1639,-0.164,-0.1644,-0.1656,-0.1659,-0.1662,-0.1621,-0.162,-0.162,0,0,-0.1248,-0.1274,-0.1294,-0.1309,-0.1332,-0.1336,-0.1344,-0.137,-0.139,-0.1436,-0.1461,-0.1506,-0.1571,-0.1593,-0.1611,-0.1652,-0.1657,-0.1675,-0.1689,-0.1701,-0.1704,-0.1706,-0.1699,-0.1701,-0.168,-0.168,-0.168,0,-0.1256,-0.1279,-0.13,-0.1318,-0.1328,-0.1344,-0.136,-0.1376,-0.142,-0.1445,-0.1458,-0.1556,-0.1575,-0.1626,-0.164,-0.1654,-0.1667,-0.1668,-0.1702,-0.1705,-0.1707,-0.17,-0.1702,-0.168,-0.168,-0.168,-0.168,0,-0.1271,-0.1298,-0.1308,-0.1337,-0.1354,-0.1369,-0.1388,-0.1416,-0.1441,-0.1464,-0.1535,-0.1574,-0.1633,-0.1642,-0.1652,-0.1691,-0.1695,-0.1698,-0.1685,-0.171,-0.1701,-0.1703,-0.168,-0.168,-0.168,-0.168,0,0,-0.1259,-0.131,-0.1316,-0.1335,-0.1365,-0.1375,-0.1404,-0.1434,-0.1461,-0.1516,-0.1563,-0.1613,-0.1652,-0.1675,-0.1702,-0.1711,-0.1717,-0.1719,-0.172,-0.1698,-0.1745,-0.1607,-0.1596,-0.1738,-0.1738,-0.1739,-0.1727,0,-0.1263,-0.1292,-0.1321,-0.135,-0.1363,-0.1395,-0.1421,-0.1457,-0.1492,-0.1544,-0.1591,-0.1648,-0.1659,-0.1699,-0.1713,-0.1728,-0.1727,-0.172,-0.1738,-0.1738,-0.16,-0.1594,-0.1741,-0.1728,-0.1729,-0.1729,-0.1729,0,-0.1258,-0.1278,-0.1308,-0.1357,-0.1371,-0.1392,-0.1439,-0.147,-0.1537,-0.1576,-0.1647,-0.1691,-0.1738,-0.1732,-0.1767,-0.1774,-0.1759,-0.1754,-0.1753,-0.1628,-0.1603,-0.1705,-0.1733,-0.1733,-0.1732,-0.1732,-0.1732,0,-0.1211,-0.1265,-0.1286,-0.1301,-0.136,-0.1388,-0.1422,-0.1484,-0.1513,-0.1602,-0.1636,-0.172,-0.1753,-0.1775,-0.1771,-0.1782,-0.1785,-0.1792,-0.1648,-0.1639,-0.177,-0.1768,-0.1788,-0.1788,-0.1788,-0.1788,-0.1788,0,-0.1175,-0.1198,-0.127,-0.1276,-0.1308,-0.1372,-0.1414,-0.1461,-0.1536,-0.1559,-0.1657,-0.1678,-0.1765,-0.1781,-0.1782,-0.1714,-0.1793,-0.164,-0.1623,-0.1768,-0.1766,-0.177,-0.1769,-0.1788,-0.1788,-0.1788,-0.1788,0,-0.1113,-0.1161,-0.1189,-0.1261,-0.1282,-0.1307,-0.1383,-0.1409,-0.1497,-0.1528,-0.1557,-0.165,-0.1666,-0.1719,-0.1736,-0.169,-0.166,-0.1609,-0.1749,-0.1742,-0.1506,-0.1504,-0.1454,-0.1449,-0.1445,-0.1441,-0.1438,0,-0.1082,-0.1091,-0.1159,-0.1166,-0.1198,-0.1246,-0.1271,-0.1369,-0.1383,-0.1478,-0.1471,-0.1532,-0.1573,-0.1495,-0.1571,-0.1561,-0.1537,-0.1513,-0.1515,-0.1481,-0.1471,-0.1476,-0.148,-0.1431,-0.143,-0.1429,-0.1428,0,-0.1017,-0.1053,-0.107,-0.1084,-0.1107,-0.1132,-0.117,-0.1169,-0.1264,-0.1354,-0.1331,-0.1347,-0.1354,-0.1389,-0.1385,-0.138,-0.1535,-0.1468,-0.1477,-0.1479,-0.1453,-0.1448,-0.1457,-0.1413,-0.1415,-0.1417,-0.1418,0,-0.097,-0.0962,-0.0985,-0.0984,-0.1005,-0.0993,-0.1039,-0.104,-0.1073,-0.117,-0.1152,-0.123,-0.1311,-0.1291,-0.1292,-0.1277,-0.1261,-0.1221,-0.1243,-0.1261,-0.1206,-0.1146,-0.0983,0,0,0,0,0,-0.0916,-0.0887,-0.088,-0.0864,-0.0879,-0.0894,-0.0951,-0.1003,-0.1084,-0.1017,-0.1078,-0.1075,-0.1082,-0.1138,-0.1084,-0.1224,-0.1281,-0.1157,-0.125,-0.1331,-0.1348,-0.1304,0,0,0,0,0,0,-0.0873,-0.0866,-0.0845,-0.076,-0.0727,-0.0737,-0.0772,-0.084,-0.081,-0.09,-0.0912,-0.0979,-0.1015,-0.1081,-0.1049,-0.1064,-0.1092,-0.1208,-0.1204,-0.1321,-0.1336,-0.135,-0.1311,0,0,0,0,0]},{"header":{"parameterUnit":"m.s-1","parameterCategory":2,"la1":30.2991,"la2":30.254,"lo1":-89.0895,"lo2":-89.0444,"dy":0.0017,"dx":0.0017,"nx":28,"ny":28,"refTime":"2024-08-14T21:00:00:Z","depth":"4","parameterNumber":3,"parameterNumberName":"V-component_of_CURRENTS"},"data":[0,0,0,0,0,0,0,0,0,0,0,0,0,0,0,0,0,0,0,0,0,0,0,0,0,0,0,0,0,0,0,0,0,0,0,0,0,0,0,0,0,0,0,0,0,0,0,0,0,0,0,0,0,0,0,0,0,0,-0.0263,-0.0263,0,-0.025,-0.025,-0.025,-0.0242,-0.0241,-0.0241,-0.0241,-0.0216,-0.0215,-0.0215,0,0,0,0,0,0,0,0,0,0,0,0,0,-0.028,-0.028,-0.0263,-0.0263,-0.0262,-0.025,-0.025,-0.025,-0.0242,-0.0241,-0.0241,-0.0241,-0.0216,-0.0215,-0.0215,0,0,0,0,0,0,0,0,0,0,0,0,0,-0.0272,-0.028,-0.0263,-0.0255,-0.0254,-0.025,-0.025,-0.025,-0.0242,-0.0241,-0.0241,-0.024,-0.0216,-0.0215,-0.0215,-0.0219,0,0,-0.0213,-0.0213,0,0,0,0,0,0,0,0,-0.0273,-0.0272,-0.0256,-0.0255,-0.0254,-0.0245,-0.0246,-0.0238,-0.0242,-0.0249,-0.0241,-0.024,-0.0223,-0.0222,-0.0224,-0.0218,-0.0217,-0.0213,-0.0212,-0.0212,-0.0212,0,0,0,0,0,0,0,-0.0273,-0.0272,-0.026,-0.0256,-0.0255,-0.0251,-0.025,-0.0245,-0.024,-0.0248,-0.0247,-0.0242,-0.0223,-0.0225,-0.0223,-0.0216,-0.0213,-0.0212,-0.0212,-0.0212,-0.0222,-0.0222,0,0,0,0,0,0,-0.0271,-0.0273,-0.0261,-0.026,-0.026,-0.0251,-0.025,-0.025,-0.024,-0.0238,-0.0242,-0.0241,-0.0226,-0.0224,-0.0222,-0.024,-0.0212,-0.0212,-0.0211,-0.0221,-0.0222,-0.0223,0,0,0,0,0,0,-0.0271,-0.027,-0.0261,-0.0264,-0.0262,-0.0251,-0.0252,-0.025,-0.0255,-0.0235,-0.0233,-0.0248,-0.0225,-0.0223,-0.0224,-0.0238,-0.0211,-0.0211,-0.022,-0.0221,-0.0222,-0.0267,0,0,0,0,0,0,-0.0272,-0.027,-0.0272,-0.0264,-0.0262,-0.027,-0.0252,-0.025,-0.0251,-0.025,-0.024,-0.0237,-0.0225,-0.0225,-0.0223,-0.0237,-0.021,-0.022,-0.0221,-0.0222,-0.0265,-0.0269,-0.0273,0,0,0,0,0,-0.0273,-0.0279,-0.0273,-0.0271,-0.0264,-0.027,-0.027,-0.0262,-0.0251,-0.0263,-0.0251,-0.0237,-0.0231,-0.0225,-0.0223,-0.0237,-0.0219,-0.0221,-0.0222,-0.0263,-0.0269,-0.0273,0,0,0,0,0,0,-0.0288,-0.0278,-0.0271,-0.0274,-0.0276,-0.0268,-0.0272,-0.0267,-0.0267,-0.0263,-0.0245,-0.0242,-0.0252,-0.0237,-0.023,-0.0243,-0.0223,-0.0224,-0.0255,-0.026,-0.0265,-0.0256,-0.021,0,0,0,0,0,-0.0292,-0.0295,-0.0286,-0.0291,-0.029,-0.0282,-0.0283,-0.028,-0.0276,-0.0275,-0.0267,-0.0257,-0.0257,-0.0252,-0.0252,-0.0254,-0.0206,-0.0262,-0.0266,-0.027,-0.0262,-0.0181,-0.0176,-0.0227,-0.0227,-0.0227,0,0,-0.0298,-0.0293,-0.0294,-0.0295,-0.0292,-0.0305,-0.0283,-0.029,-0.0304,-0.0272,-0.0287,-0.0277,-0.0263,-0.0272,-0.0274,-0.0259,-0.0236,-0.0272,-0.0275,-0.0264,-0.0182,-0.0177,-0.0172,-0.0228,-0.0228,-0.0228,0,0,-0.0317,-0.0309,-0.032,-0.0324,-0.0323,-0.0324,-0.0328,-0.0326,-0.0327,-0.034,-0.0321,-0.0308,-0.0317,-0.0297,-0.0292,-0.0315,-0.0268,-0.0328,-0.0335,-0.0258,-0.0252,-0.0246,-0.0201,-0.0191,-0.0322,-0.0322,-0.0322,0,-0.0324,-0.0337,-0.0326,-0.0339,-0.0346,-0.0335,-0.0355,-0.0359,-0.036,-0.0353,-0.0354,-0.0332,-0.0325,-0.0309,-0.0326,-0.0324,-0.0281,-0.0318,-0.026,-0.0254,-0.0247,-0.0202,-0.019,-0.0325,-0.0324,-0.0324,-0.0324,0,-0.0351,-0.0365,-0.0373,-0.0387,-0.0397,-0.0413,-0.0414,-0.0428,-0.0427,-0.0412,-0.04,-0.0377,-0.0353,-0.036,-0.0356,-0.0315,-0.0303,-0.028,-0.0243,-0.0244,-0.0197,-0.0184,-0.0328,-0.0327,-0.0326,-0.0326,0,0,-0.0362,-0.0386,-0.0392,-0.0412,-0.0424,-0.044,-0.0463,-0.0471,-0.0472,-0.0459,-0.0437,-0.0435,-0.0393,-0.0382,-0.036,-0.0302,-0.0238,-0.0279,-0.0274,-0.0228,-0.0084,-0.0104,-0.0091,-0.0199,-0.0196,-0.0194,-0.0078,0,-0.0388,-0.043,-0.0433,-0.0482,-0.0504,-0.0507,-0.053,-0.0531,-0.0519,-0.0495,-0.0441,-0.0417,-0.0409,-0.0392,-0.0331,-0.0255,-0.0201,-0.0273,-0.0095,-0.009,-0.01,-0.0075,-0.0186,-0.0068,-0.0064,-0.0062,-0.0061,0,-0.0415,-0.0442,-0.049,-0.0533,-0.0542,-0.0571,-0.0596,-0.0609,-0.0566,-0.0547,-0.0488,-0.0435,-0.0355,-0.0344,-0.0193,-0.0237,-0.017,-0.0111,-0.0104,-0.0091,-0.0084,-0.006,-0.0036,-0.0038,-0.004,-0.0041,-0.0043,0,-0.0436,-0.0485,-0.053,-0.0544,-0.0585,-0.0612,-0.0634,-0.0622,-0.0629,-0.0558,-0.0533,-0.0422,-0.0363,-0.0246,-0.0136,-0.0153,0.0038,0.004,0.0084,0.0082,0.0085,0.0078,0.0151,0.0151,0.0151,0.0151,0.015,0,-0.0462,-0.0503,-0.055,-0.0575,-0.0633,-0.0643,-0.0681,-0.0683,-0.0659,-0.0645,-0.0549,-0.0499,-0.0332,-0.021,-0.0113,0.0029,0.0067,0.0093,0.0123,0.0057,0.0046,0.0093,0.0085,0.0155,0.0154,0.0153,0.0152,0,-0.0481,-0.0509,-0.0568,-0.0623,-0.0646,-0.0686,-0.0735,-0.0751,-0.0722,-0.0695,-0.067,-0.0536,-0.0361,-0.0205,-0.0003,0.0051,0.0192,0.0225,0.0132,0.0153,0.0174,0.0162,0.0299,0.0299,0.03,0.03,0.0301,0,-0.0497,-0.0527,-0.0604,-0.0643,-0.0674,-0.0733,-0.077,-0.0783,-0.0786,-0.072,-0.0695,-0.053,-0.0424,-0.0132,0.0016,0.0228,0.0235,0.0285,0.0235,0.018,0.0196,0.0182,0.017,0.0301,0.0301,0.0302,0.0302,0,-0.0524,-0.0551,-0.0596,-0.0671,-0.0729,-0.0788,-0.0833,-0.0842,-0.0833,-0.0814,-0.0687,-0.0539,-0.0339,-0.012,0.0046,0.0184,0.0248,0.029,0.0289,0.0243,0.0185,0.0197,0.0184,0.0303,0.0303,0.0303,0.0303,0,-0.0541,-0.0579,-0.0632,-0.0695,-0.0768,-0.0813,-0.0841,-0.083,-0.083,-0.0757,-0.0712,-0.0501,-0.0378,-0.0143,0.0008,0.0154,0.0172,0.0174,0.018,0.0179,0.0099,0.0004,0.0108,0,0,0,0,0,-0.0551,-0.0587,-0.065,-0.072,-0.0788,-0.0824,-0.0868,-0.088,-0.087,-0.0784,-0.075,-0.0562,-0.031,-0.0185,-0.0035,-0.0004,0.018,0.0166,0.0181,0.0312,0.031,0.0234,0,0,0,0,0,0,-0.0561,-0.0616,-0.0644,-0.0719,-0.0765,-0.0837,-0.0862,-0.0859,-0.0799,-0.0762,-0.0599,-0.0557,-0.028,-0.0374,-0.0032,0.0009,0.0025,0.0287,0.0288,0.0313,0.0312,0.031,0.0231,0,0,0,0,0]}]]